DateTimeUTC,F1_A11,F1_S11,BsB_S11,BsG_S11,BsR_S11,BbsB_S11,BbsG_S11,BbsR_S11,BaB_A11,BaG_A11,BaR_A11,Tu_S11,T_S11,Uu_S11,U_S11,P_S11,T1_A11
2021-03-11T10:00:00Z,00000200,21000000,,,,,,,-000.21,-000.19,-000.23,17.3,24.7,,00.0,0637.8,31.0
2021-03-11T10:01:00Z,00000200,21000000,,,,,,,0000.19,0000.09,0000.33,17.2,24.7,,00.0,0637.8,30.9
2021-03-11T10:02:00Z,00000200,21000000,,,,,,,0000.38,0000.15,-000.59,17.2,24.7,,00.0,0637.8,30.9
2021-03-11T10:03:00Z,00000200,61000000,,,,,,,0000.01,0000.38,0000.62,17.2,24.7,,00.0,0637.8,30.9
2021-03-11T10:04:00Z,00000200,41000000,0001.80,0000.79,0000.35,-000.15,0000.55,0000.06,0000.73,0000.14,0000.16,17.3,24.4,,00.0,0638.6,30.9
2021-03-11T10:05:00Z,00000200,01000000,0001.83,0001.14,0000.47,0000.31,0000.36,0000.18,0000.45,0000.68,0000.30,17.2,24.4,,00.0,0638.8,30.9
2021-03-11T10:06:00Z,00000200,01000000,0001.43,0000.92,0000.46,0000.15,0000.29,-000.09,0000.46,0000.58,0000.24,17.2,24.3,,00.0,0638.8,30.9
2021-03-11T10:07:00Z,00000200,01000000,0001.72,0001.11,0000.50,0000.58,0000.24,0000.25,0000.24,-000.06,-000.02,17.1,24.3,,00.0,0638.8,30.9
2021-03-11T10:08:00Z,00000200,01000000,0002.19,0001.21,0000.68,0000.34,0000.39,0000.13,0000.53,0000.54,0000.59,17.0,24.2,,00.0,0638.8,30.9
2021-03-11T10:09:00Z,00000200,01000000,0000.98,0000.89,0000.63,0000.10,0000.07,0000.19,0000.31,0000.33,0000.25,17.0,24.2,,00.0,0638.8,30.9
2021-03-11T10:10:00Z,00000200,01000000,0001.72,0000.74,0000.62,0000.30,0000.06,0000.18,0000.69,0000.76,0000.09,16.9,24.2,,00.0,0638.8,30.9
2021-03-11T10:11:00Z,00000200,01000000,0001.27,0000.76,0000.53,0000.58,0000.29,0000.23,0000.05,-000.09,0000.41,16.8,24.1,,00.0,0638.8,30.9
2021-03-11T10:12:00Z,00000200,01000000,0001.35,0001.07,0000.68,0000.02,0000.16,0000.13,0000.80,0000.49,0000.73,16.8,24.1,,00.0,0638.8,30.9
2021-03-11T10:13:00Z,00000200,01000000,0001.20,0000.94,0000.61,0000.59,0000.25,0000.03,0000.76,0001.02,0000.50,16.7,24.0,,00.0,0638.7,30.8
2021-03-11T10:14:00Z,00000200,01000000,0001.92,0000.87,0000.57,0000.14,0000.40,0000.21,0000.94,0000.20,-000.02,16.8,24.0,,00.0,0638.7,30.9
2021-03-11T10:15:00Z,00000200,01000000,0001.69,0000.91,0000.40,-000.02,0000.17,0000.17,0000.40,0000.48,0000.68,16.9,24.0,,00.0,0638.7,30.9
2021-03-11T10:16:00Z,00000200,01000000,0001.48,0000.87,0000.46,0000.07,0000.17,0000.23,0000.56,0000.75,0000.43,16.9,24.0,,00.0,0638.7,30.9
2021-03-11T10:17:00Z,00000200,01000000,0001.64,0000.98,0000.52,0000.13,0000.42,0000.33,0000.68,0000.69,0000.42,17.0,24.1,,00.0,0638.7,30.9
2021-03-11T10:18:00Z,00000200,01000000,0001.67,0000.85,0000.48,0000.49,0000.22,-000.11,0000.38,0000.38,0000.34,17.1,24.1,,00.0,0638.8,30.9
2021-03-11T10:19:00Z,00000200,01000000,0001.70,0001.02,0000.51,0000.43,0000.46,0000.05,0000.20,-000.18,0000.20,17.1,24.1,,00.0,0638.8,30.9
2021-03-11T10:20:00Z,00000200,01000000,0001.51,0000.98,0000.40,0000.27,0000.22,0000.00,0000.52,0000.70,0000.25,17.2,24.2,,00.0,0638.8,30.9
2021-03-11T10:21:00Z,00000200,01000000,0002.08,0000.78,0000.47,0000.43,0000.34,0000.08,0000.76,0000.90,0000.22,17.3,24.2,,00.0,0638.8,31.0
2021-03-11T10:22:00Z,00000200,01000000,0001.65,0000.83,0000.66,0000.37,0000.01,-000.03,0000.38,0000.57,0000.75,17.3,24.2,,00.0,0638.8,30.9
2021-03-11T10:23:00Z,00000200,01000000,0001.91,0000.86,0000.39,0000.60,0000.30,0000.06,0001.10,0000.24,0000.16,17.3,24.3,,00.0,0638.8,30.9
2021-03-11T10:24:00Z,00000200,01000000,0002.13,0001.08,0000.54,0000.13,0000.38,0000.07,0000.59,0000.95,0000.74,17.3,24.3,,00.0,0638.8,30.9
2021-03-11T10:25:00Z,00000200,01000000,0001.33,0000.91,0000.57,0000.37,0000.14,0000.12,0000.53,0000.38,-000.02,17.3,24.2,,00.0,0638.8,30.9
2021-03-11T10:26:00Z,00000200,01000000,0001.65,0001.06,0000.73,0000.55,0000.28,0000.16,0000.65,0000.35,0000.57,17.2,24.2,,00.0,0638.8,30.9
2021-03-11T10:27:00Z,00000200,01000000,0001.49,0001.00,0000.63,0000.74,0000.23,0000.25,0000.46,0000.74,0000.75,17.2,24.2,,00.0,0638.8,30.9
2021-03-11T10:28:00Z,00000200,01000000,0001.46,0001.04,0000.51,-000.04,0000.28,-000.14,0000.98,0000.76,0000.25,17.1,24.2,,00.0,0638.7,30.9
2021-03-11T10:29:00Z,00000200,01000000,0001.72,0001.22,0000.61,0000.11,0000.19,0000.13,0000.69,0000.94,0000.60,17.2,24.1,,00.0,0638.7,30.9
2021-03-11T10:30:00Z,00000200,01000000,0001.64,0001.07,0000.70,0000.66,0000.04,0000.09,0000.75,0000.58,0000.22,17.2,24.2,,00.0,0638.7,30.9
2021-03-11T10:31:00Z,00000200,01000000,0001.92,0000.99,0000.68,0000.40,0000.12,0000.01,0000.79,0000.55,0000.47,17.3,24.2,,00.0,0638.7,30.9
2021-03-11T10:32:00Z,00000200,01000000,0001.66,0001.08,0000.63,0000.34,0000.21,0000.16,0000.59,0000.85,0001.06,17.3,24.2,,00.0,0638.7,30.9
2021-03-11T10:33:00Z,00000200,01000000,0001.93,0001.15,0000.75,0000.03,0000.16,0000.33,0000.96,0000.42,-000.01,17.4,24.3,,00.0,0638.7,30.9
2021-03-11T10:34:00Z,00000200,01000000,0001.65,0000.91,0000.78,0000.03,0000.52,0000.20,0000.74,0000.89,0000.48,17.4,24.3,,00.0,0638.7,30.9
2021-03-11T10:35:00Z,00000200,01000000,0002.74,0001.13,0000.40,0000.06,0000.17,0000.26,0000.61,0000.28,0000.74,17.3,24.3,,00.0,0638.7,30.9
2021-03-11T10:36:00Z,00000200,01000000,0002.25,0001.23,0000.80,0000.16,0000.20,0000.44,0000.49,0000.60,0000.01,17.3,24.2,,00.0,0638.7,30.9
2021-03-11T10:37:00Z,00000200,01000000,0001.94,0000.81,0000.44,0000.15,0000.57,-000.00,0000.71,0000.37,0000.14,17.2,24.2,,00.0,0638.7,30.9
2021-03-11T10:38:00Z,00000200,01000000,0001.61,0001.00,0000.50,0000.34,0000.11,-000.02,0000.31,0000.56,0000.36,17.2,24.2,,00.0,0638.7,30.9
2021-03-11T10:39:00Z,00000200,01000000,0002.02,0001.10,0000.59,-000.02,0000.55,0000.09,0000.60,0000.68,0000.84,17.1,24.2,,00.0,0638.7,30.9
2021-03-11T10:40:00Z,00000200,01000000,0002.13,0000.96,0000.68,0000.57,0000.26,-000.20,0000.38,0000.47,-000.03,17.0,24.1,,00.0,0638.7,30.9
2021-03-11T10:41:00Z,00000200,01000000,0001.92,0001.08,0000.52,0000.64,0000.19,0000.21,0000.99,0000.23,0000.42,17.0,24.1,,00.0,0638.7,30.9
2021-03-11T10:42:00Z,00000200,01000000,0001.40,0001.05,0000.69,0000.52,0000.17,0000.11,-000.09,0000.09,0000.21,16.9,24.1,,00.0,0638.7,30.9
2021-03-11T10:43:00Z,00000200,01000000,0001.56,0000.95,0000.76,0000.74,0000.16,0000.29,0000.57,0000.29,0000.22,16.9,24.0,,00.0,0638.7,30.9
2021-03-11T10:44:00Z,00000200,01000000,0002.21,0001.08,0000.33,0000.67,0000.38,0000.12,0000.67,0000.81,0000.92,16.9,24.0,,00.0,0638.7,30.9
2021-03-11T10:45:00Z,00000200,01000000,0002.32,0001.00,0000.47,0000.26,0000.35,0000.19,0000.64,0000.64,0000.43,17.0,24.0,,00.0,0638.7,30.9
2021-03-11T10:46:00Z,00000200,01000000,0001.50,0001.15,0000.48,0000.02,0000.52,-000.01,0000.74,0000.71,0000.20,17.1,24.1,,00.0,0638.6,30.9
2021-03-11T10:47:00Z,00000200,01000000,0002.04,0000.78,0000.48,0000.07,0000.22,0000.14,0000.66,0000.57,0000.25,17.1,24.1,,00.0,0638.6,30.9
2021-03-11T10:48:00Z,00000200,01000000,0002.18,0000.96,0000.41,0000.85,0000.21,-000.20,0000.50,-000.05,0000.50,17.2,24.1,,00.0,0638.7,30.9
2021-03-11T10:49:00Z,00000200,01000000,0001.74,0000.94,0000.42,0000.23,0000.08,-000.20,0000.65,0000.73,0000.36,17.3,24.2,,00.0,0638.7,30.9
2021-03-11T10:50:00Z,00000200,01000000,0002.15,0001.00,0000.44,0000.51,0000.21,-000.07,0000.66,0000.95,0000.36,17.3,24.2,,00.0,0638.7,30.9
2021-03-11T10:51:00Z,00000200,01000000,0001.90,0000.69,0000.60,0000.42,0000.18,-000.13,0000.26,0000.63,0000.49,17.3,24.2,,00.0,0638.6,31.0
2021-03-11T10:52:00Z,00000200,01000000,0001.62,0000.97,0000.49,0000.51,0000.50,-000.10,0001.14,0000.60,0000.50,17.4,24.2,,00.0,0638.6,30.9
2021-03-11T10:53:00Z,00000200,01000000,0001.93,0001.22,0000.65,0000.22,0000.33,0000.27,0000.56,0000.65,0000.25,17.3,24.2,,00.0,0638.6,30.9
2021-03-11T10:54:00Z,00000200,01000000,0001.29,0000.93,0000.55,0000.91,0000.18,0000.16,0000.67,0000.57,0000.84,17.2,24.2,,00.0,0638.6,30.9
2021-03-11T10:55:00Z,00000200,01000000,0002.37,0000.97,0000.62,-000.06,0000.22,0000.24,0000.74,0000.79,-000.09,17.2,24.2,,00.0,0638.6,30.9
2021-03-11T10:56:00Z,00000200,01000000,0001.61,0001.08,0000.51,-000.08,0000.15,0000.08,0000.74,0000.13,0000.56,17.1,24.1,,00.0,0638.6,30.9
2021-03-11T10:57:00Z,00000200,41000000,,,,,,,-000.90,-000.79,-000.60,17.1,24.2,,00.0,0638.6,30.9
2021-03-11T10:58:00Z,00000200,61000000,,,,,,,0000.26,0000.64,0000.73,16.7,24.2,,00.0,0637.6,30.9
2021-03-11T10:59:00Z,00000200,21000000,,,,,,,0000.16,0000.23,-000.24,16.7,24.3,,00.0,0637.6,30.9
